Location: Boissi�res
(45.2500°N, 2.3667°E)
Time: 04:55:38
(UTC+00:00)

SL-08 R/B - Pass Details

Date: 03 March 2021
Orbit: 949 x 1019 km, 82.9° (Epoch: 13 April)

Event Time Altitude Azimuth Distance (km) Brightness Sun altitude
Rises 20:06:01 0° 182° (S) 3,722 7.4 -26.1°
Enters shadow 20:06:06 - 182° (S) 3,689 7.4 -26.1°
Exits shadow 20:11:55 34° 179° (S) 1,600 5.4 -27.1°
Maximum altitude 20:14:56 81° 96° (E) 1,034 4.4 -27.6°
Drops below altitude 10° 20:21:26 10° 10° (N) 2,817 7.0 -28.6°
Sets 20:24:00 0° 10° (N) 3,771 7.7 -29.1°
